Location: Blackwall
(51.5097°N, 0.0016°W)
Time: 00:10:07
(UTC+00:00)

Cosmos 1602 Rocket - Pass Details

Date: 15 May 2026
Orbit: 597 x 624 km, 82.5° (Epoch: 9 June)

Event Time Altitude Azimuth Distance (km) Brightness Sun altitude
Rises 20:38:16 0° 354° (N) 2,861 7.8 -7.3°
Reaches altitude 10° 20:40:34 10° 1° (N) 1,956 6.8 -7.5°
Maximum altitude 20:44:43 44° 73° (ENE) 845 4.1 -8.0°
Enters shadow 20:48:46 11° 146° (SSE) 1,923 5.4 -8.4°
